Location: Ch�ze
(42.9000°N, 0.0333°W)
Time: 22:50:07
(UTC+00:00)

Okean-O - Pass Details

Date: 24 January 2021
Orbit: 638 x 641 km, 98.2° (Epoch: 24 February)

Event Time Altitude Azimuth Distance (km) Brightness Sun altitude
Rises 18:02:54 0° 144° (SE) 2,934 5.8 -11.1°
Reaches altitude 10° 18:05:13 10° 136° (SE) 2,029 4.9 -11.6°
Maximum altitude 18:09:17 37° 70° (ENE) 1,002 3.1 -12.3°
Drops below altitude 10° 18:13:22 10° 3° (N) 2,043 5.0 -13.0°
Sets 18:15:42 0° 355° (N) 2,957 6.0 -13.4°
